Cloud_Cover
9 9 0 0 0 0 0 10 94 68 100 100 97 84 100 51 4 5 52 63 89 91 5 5 5 0 0 0 0 0 10 7 10
0 0 0 3 0 0 0 2 1 65 53 100 100 100 100 86 97 16 5 16 85 83 43 5 5 5 0 0 5 1 4 3 3
0 0 0 0 0 2 0 0 0 0 0 20 6 69 82 77 100 70 40 5 5 5 8 5 5 5 49 3 5 36 0 1 0
0 0 0 0 0 0 0 0 0 0 0 0 0 5 6 52 99 100 98 86 14 43 18 5 5 5 5 24 15 29 5 4 0
0 0 0 0 0 0 0 0 0 0 0 0 0 0 2 36 5 50 65 100 100 100 100 100 17 5 8 12 20 48 60 5 5
0 0 0 0 0 0 0 0 0 0 14 2 0 0 0 10 15 5 8 44 96 100 100 100 100 87 5 5 6 11 82 32 5
0 0 0 0 0 0 0 0 0 0 15 72 44 30 0 27 42 35 3 7 5 47 74 100 100 100 94 23 6 5 5 5 5
0 0 0 0 0 0 0 0 0 0 0 81 100 100 56 17 55 40 29 97 6 12 48 60 84 100 95 100 39 6 5 5 5
0 0 0 0 0 0 0 0 0 0 0 6 32 33 53 73 23 91 14 66 98 21 44 5 15 45 96 33 27 51 5 5 5
0 0 0 0 0 0 0 0 0 0 0 0 0 1 1 94 85 23 84 42 93 92 100 28 5 10 76 61 73 6 5 5 5
0 0 0 0 0 0 0 0 0 0 0 0 0 0 1 13 100 99 34 48 94 100 90 98 10 12 8 67 92 82 21 5 5
0 0 0 0 0 0 0 0 0 0 0 0 0 0 0 15 89 100 99 99 100 100 100 47 94 30 100 86 37 97 72 41 88
0 0 0 0 0 0 0 0 0 0 0 0 0 0 0 0 6 55 38 74 100 100 100 50 97 63 55 100 99 96 100 100 100
0 0 0 0 3 40 6 0 0 0 0 0 3 3 0 0 0 0 94 48 68 100 100 100 100 100 100 100 100 100 100 100 100
0 0 0 0 71 98 99 98 16 0 0 0 5 13 53 0 1 4 7 52 73 100 100 98 100 97 100 100 100 100 100 100 100
0 0 0 0 40 100 100 100 81 0 0 4 5 2 90 0 91 99 36 91 100 100 100 100 100 100 100 100 100 97 100 100 100
0 0 2 5 40 100 100 100 100 84 1 3 5 15 66 23 99 100 83 57 100 100 100 100 100 100 100 98 100 100 100 100 100
3 4 5 5 70 100 100 100 100 100 89 20 0 17 62 30 70 100 96 100 100 100 100 100 100 100 100 100 100 100 100 100 100
5 5 5 27 94 78 70 100 100 100 100 89 5 5 69 92 97 100 100 100 100 100 100 100 100 100 100 100 100 100 100 100 100
4 2 4 5 24 64 28 77 63 92 89 100 95 21 72 57 14 99 100 100 100 96 100 100 100 100 100 100 100 100 100 100 100